TimeCST,TemperatureF,Dew PointF,Humidity,Sea Level PressureIn,VisibilityMPH,Wind Direction,Wind SpeedMPH,Gust SpeedMPH,PrecipitationIn,Events,Conditions,WindDirDegrees,DateUTC
12:54 AM,-0.0,-8.0,69,30.66,10.0,SSW,6.9,-,N/A,,Clear,210,2014-01-24 06:54:00
1:54 AM,1.0,-7.1,69,30.63,10.0,SSW,8.1,-,N/A,,Clear,200,2014-01-24 07:54:00
2:54 AM,1.9,-6.0,69,30.60,10.0,SSW,9.2,-,N/A,,Clear,200,2014-01-24 08:54:00
3:54 AM,1.9,-5.1,72,30.55,10.0,SSW,10.4,-,N/A,,Clear,200,2014-01-24 09:54:00
4:54 AM,5.0,-5.1,63,30.51,10.0,SSW,15.0,-,N/A,,Clear,210,2014-01-24 10:54:00
5:54 AM,5.0,-4.0,66,30.48,10.0,SSW,11.5,-,N/A,,Clear,200,2014-01-24 11:54:00
6:54 AM,6.1,-4.0,63,30.43,10.0,SSW,15.0,-,N/A,,Clear,200,2014-01-24 12:54:00
7:54 AM,8.1,-2.9,61,30.40,10.0,SSW,17.3,-,N/A,,Clear,210,2014-01-24 13:54:00
8:54 AM,10.9,-0.9,59,30.36,10.0,SSW,19.6,27.6,N/A,,Clear,210,2014-01-24 14:54:00
9:54 AM,16.0,-0.0,49,30.32,10.0,SSW,20.7,28.8,N/A,,Clear,210,2014-01-24 15:54:00
10:54 AM,19.0,-0.0,43,30.24,10.0,SSW,27.6,35.7,N/A,,Clear,210,2014-01-24 16:54:00
11:54 AM,21.9,1.0,40,30.14,10.0,SW,26.5,39.1,N/A,,Clear,220,2014-01-24 17:54:00
12:54 PM,26.1,3.9,39,30.05,10.0,SSW,28.8,38.0,N/A,,Clear,210,2014-01-24 18:54:00
1:54 PM,30.0,7.0,38,29.98,10.0,SW,27.6,40.3,N/A,,Clear,220,2014-01-24 19:54:00
2:54 PM,30.9,6.1,35,29.95,10.0,SW,20.7,28.8,N/A,,Clear,220,2014-01-24 20:54:00
3:54 PM,32.0,8.1,37,29.92,10.0,WSW,29.9,38.0,N/A,,Mostly Cloudy,240,2014-01-24 21:54:00
4:54 PM,32.0,8.1,37,29.90,10.0,WSW,23.0,29.9,N/A,,Overcast,240,2014-01-24 22:54:00
5:54 PM,32.0,9.0,38,29.88,10.0,WSW,18.4,29.9,N/A,,Overcast,240,2014-01-24 23:54:00
6:54 PM,33.1,8.1,35,29.86,10.0,SW,19.6,26.5,N/A,,Overcast,230,2014-01-25 00:54:00
7:54 PM,33.1,10.0,38,29.81,10.0,SW,18.4,26.5,N/A,,Overcast,230,2014-01-25 01:54:00
8:54 PM,33.1,10.0,38,29.77,10.0,SW,17.3,24.2,N/A,,Overcast,220,2014-01-25 02:54:00
9:54 PM,34.0,10.9,38,29.72,10.0,SW,19.6,31.1,N/A,,Overcast,230,2014-01-25 03:54:00
10:54 PM,35.1,12.9,40,29.68,10.0,SW,19.6,29.9,N/A,,Overcast,230,2014-01-25 04:54:00
11:54 PM,36.0,15.1,43,29.65,10.0,WSW,18.4,26.5,0.00,,Overcast,240,2014-01-25 05:54:00